Weather History for El Centro, CA

Change the Weather History Date:

Sunday, April 21, 2013

  Actual Average Record
Temperature  
Mean Temperature 76 °F -  
Max Temperature 95 °F 83 °F 102 °F (2009)
Min Temperature 57 °F 58 °F 48 °F (2007)
Cooling Degree Days 11    
Growing Degree Days 26 (Base 50)    
Moisture  
Dew Point 34 °F    
Average Humidity 23    
Maximum Humidity 40    
Minimum Humidity 11    
Precipitation  
Precipitation 0.00 in - - ()
Sea Level Pressure  
Sea Level Pressure 29.92 in    
Wind  
Wind Speed 5 mph (South)    
Max Wind Speed 10 mph    
Max Gust Speed -    
Visibility 10 miles    
Events      
Averages and records for this station are not official NWS values.
T = Trace of Precipitation, MM = Missing Value Source: NWS Daily Summary

Daily Weather History Graph

Daily Weather History Graph

Search for Another Location

Airport:

Trip Planner

Search our weather history database for the weather conditions in past years. The results will help you decide how hot, cold, wet, or windy it might be!

Date:

Astronomy

Apr. 21, 2013 Rise Set
Actual Time 6:05 AM PDT 7:17 PM PDT
Civil Twilight 5:39 AM PDT 7:43 PM PDT
Nautical Twilight 5:09 AM PDT 8:13 PM PDT
Astronomical Twilight 4:37 AM PDT 8:45 PM PDT
Moon 3:19 PM PDT (4/21) 3:16 AM PDT (4/21)
Length of Visible Light 14h 03m
Length of Day
13h 11m
Waxing Gibbous, 81% of the Moon is Illuminated
Apr 21
Waxing Gibbous
Apr 25
Full
May 2
Last Quarter
May 9
New
May 17
First Quarter

Hourly Weather History & Observations

Time (PDT) Temp. Dew Point Humidity Pressure Visibility Wind Dir Wind Speed Gust Speed Precip Events Conditions
12:56 AM 68.0 °F 27.0 °F 21% 29.92 in 10.0 mi SW 3.5 mph - N/A   Clear
1:56 AM 64.9 °F 26.1 °F 23% 29.92 in 10.0 mi SSW 4.6 mph - N/A   Clear
2:56 AM 57.9 °F 28.9 °F 33% 29.91 in 10.0 mi West 6.9 mph - N/A   Clear
3:56 AM 62.1 °F 28.9 °F 29% 29.92 in 10.0 mi WSW 5.8 mph - N/A   Clear
4:56 AM 57.0 °F 33.1 °F 40% 29.93 in 10.0 mi Calm Calm - N/A   Clear
5:56 AM 59.0 °F 32.0 °F 36% 29.94 in 10.0 mi Calm Calm - N/A   Clear
6:56 AM 59.0 °F 34.0 °F 39% 29.96 in 10.0 mi SW 3.5 mph - N/A   Clear
7:56 AM 68.0 °F 34.0 °F 28% 29.98 in 10.0 mi Calm Calm - N/A   Clear
8:56 AM 75.0 °F 27.0 °F 17% 29.99 in 10.0 mi Calm Calm - N/A   Clear
9:56 AM 78.1 °F 36.0 °F 22% 29.99 in 10.0 mi SE 5.8 mph - N/A   Clear
10:56 AM 84.9 °F 35.1 °F 17% 29.99 in 10.0 mi NE 5.8 mph - N/A   Clear
11:56 AM 87.1 °F 37.0 °F 17% 29.97 in 10.0 mi Variable 4.6 mph - N/A   Clear
12:56 PM 90.0 °F 35.1 °F 14% 29.94 in 10.0 mi Variable 4.6 mph - N/A   Clear
1:56 PM 93.0 °F 32.0 °F 12% 29.92 in 10.0 mi ESE 5.8 mph - N/A   Clear
2:56 PM 93.0 °F 33.1 °F 12% 29.89 in 10.0 mi Calm Calm - N/A   Clear
3:56 PM 95.0 °F 32.0 °F 11% 29.87 in 10.0 mi SE 8.1 mph - N/A   Clear
4:56 PM 93.9 °F 39.9 °F 15% 29.85 in 10.0 mi ESE 10.4 mph - N/A   Clear
5:56 PM 90.0 °F 44.1 °F 20% 29.84 in 10.0 mi SE 9.2 mph - N/A   Clear
6:56 PM 82.9 °F 41.0 °F 23% 29.84 in 10.0 mi SE 8.1 mph - N/A   Clear
7:56 PM 75.9 °F 39.9 °F 27% 29.86 in 10.0 mi SSE 8.1 mph - N/A   Clear
8:56 PM 75.9 °F 35.1 °F 23% 29.88 in 10.0 mi South 5.8 mph - N/A   Clear
9:56 PM 73.0 °F 32.0 °F 22% 29.89 in 10.0 mi SSE 6.9 mph - N/A   Clear
10:56 PM 73.9 °F 33.1 °F 22% 29.90 in 10.0 mi SW 5.8 mph - N/A   Clear
11:56 PM 73.9 °F 33.1 °F 22% 29.90 in 10.0 mi SW 10.4 mph - N/A   Clear